OSCAR 7 1 07530U 74089B 26072.48660519 -.00000021 00000-0 16185-3 0 9997 2 07530 101.9967 84.7174 0011948 314.7647 202.3118 12.53696423348526 OSCAR 11 (UOSAT 2) 1 14781U 84021B 26072.43304581 .00001834 00000-0 19332-3 0 9998 2 14781 97.7951 39.1529 0008651 132.5836 227.6114 14.90521358242861 OSCAR 19 (LUSAT) 1 20442U 90005G 26072.03974638 .00000186 00000-0 83138-4 0 9995 2 20442 98.8935 91.1617 0012465 125.3538 234.8812 14.34089610888611 EYESAT A 1 22825U 93061C 26072.62283660 .00000127 00000-0 65293-4 0 9997 2 22825 98.6973 140.0357 0008754 28.2540 331.9116 14.30914557693335 ITAMSAT 1 22826U 93061D 26072.42091805 .00000140 00000-0 69576-4 0 9997 2 22826 98.6922 139.7416 0008987 12.5337 347.6067 14.31338612693612 RADIO ROSTO 1 23439U 94085A 26072.50915844 -.00000045 00000-0 -75323-4 0 9995 2 23439 64.8133 97.9551 0152805 21.3124 339.4075 11.27583879285117 JAS 2 1 24278U 96046B 26072.19543315 .00000012 00000-0 49734-4 0 9990 2 24278 98.5376 294.1407 0349676 345.6750 13.4670 13.53268932460187 TECHSAT 1B 1 25397U 98043D 26072.39277055 .00000119 00000-0 71391-4 0 9991 2 25397 99.0030 62.7561 0002155 113.7552 246.3852 14.24407312437690 ISS (ZARYA) 1 25544U 98067A 26072.38526547 .00010392 00000-0 19895-3 0 9997 2 25544 51.6324 54.0842 0007910 188.2233 171.8627 15.48625615556900 PCSAT 1 26931U 01043C 26072.60951062 .00000161 00000-0 91158-4 0 9991 2 26931 67.0500 131.4754 0007004 265.0606 94.9697 14.31914414276766 SAUDISAT 1C 1 27607U 02058C 26072.46172483 .00002103 00000-0 26508-3 0 9999 2 27607 64.5526 65.1060 0075301 280.0120 79.2494 14.82801116250261 CUTE-1 1 27844U 03031E 26072.49788693 .00000426 00000-0 20331-3 0 9997 2 27844 98.6777 82.2494 0010739 102.5935 257.6446 14.24269872178055 CUBESAT XI 4 1 27848U 03031J 26071.52490780 .00000374 00000-0 18335-3 0 9994 2 27848 98.6808 81.0787 0010480 121.3489 238.8716 14.23563697177626 MOZHAYETS 4 1 27939U 03042A 26072.66544649 .00001115 00000-0 18072-3 0 9999 2 27939 98.3446 254.3370 0010696 206.5621 243.4810 14.73265840201481 CUBESAT XI 5 1 28895U 05043F 26071.97796089 .00002314 00000-0 37351-3 0 9997 2 28895 98.2837 225.6641 0014896 147.5945 212.6180 14.72336828 87593 CUTE-1.7+APD 2 1 32785U 08021C 26072.56107092 .00008593 00000-0 55549-3 0 9999 2 32785 97.8203 52.1020 0009180 5.6192 354.5137 15.08433027970778 SEEDS 1 32791U 08021J 26072.45464879 .00021121 00000-0 74555-3 0 9993 2 32791 97.7517 66.0416 0000826 341.4508 18.6700 15.29260072972648 YUBELEINY 1 32953U 08025A 26072.57082286 .00000010 00000-0 -68562-6 0 9997 2 32953 82.5007 54.9075 0019664 156.8126 203.3846 12.43175978807818 KKS-1 (KISEKI) 1 33499U 09002H 26072.51361771 .00002026 00000-0 25708-3 0 9992 2 33499 98.1184 353.4671 0006607 235.7952 124.2635 14.82846426922014 SWISSCUBE 1 35932U 09051B 26072.24102458 .00001392 00000-0 28580-3 0 9991 2 35932 98.4096 338.4468 0007326 142.4403 217.7311 14.62270355875133 BEESAT 1 35933U 09051C 26072.26998940 .00001165 00000-0 24453-3 0 9996 2 35933 98.4024 338.3093 0005570 152.4662 207.6835 14.61542425875177 ITUPSAT 1 1 35935U 09051E 26072.58844599 .00001113 00000-0 24047-3 0 9995 2 35935 98.4111 337.9236 0007528 165.9582 194.1828 14.60277679874788 XIWANG-1 (HOPE-1) 1 36122U 09072B 26072.63695258 -.00000430 00000-0 -10098-2 0 9992 2 36122 100.3918 28.0416 0008120 91.2180 268.9864 13.16434086780432 TISAT 1 1 36799U 10035E 26072.29394537 .00022590 00000-0 83311-3 0 9999 2 36799 98.0644 10.6739 0001898 155.6064 204.5263 15.27809245853041 JUGNU 1 37839U 11058B 26072.60296259 .00000522 00000-0 13276-3 0 9992 2 37839 19.9596 169.1222 0018730 100.3127 28.9123 14.13743099745481 SRMSAT 1 37841U 11058D 26071.88014721 .00000480 00000-0 11685-3 0 9991 2 37841 19.9720 282.3949 0011727 224.2053 250.8798 14.11549135744194 HORYU 2 1 38340U 12025D 26072.39082810 .00004337 00000-0 45104-3 0 9990 2 38340 98.2009 201.5379 0009186 132.0478 228.1522 14.90408587734455 STRAND 1 1 39090U 13009E 26072.46336657 .00000434 00000-0 16028-3 0 9992 2 39090 98.3892 255.0613 0009238 151.0147 209.1554 14.37098624683316 CUBEBUG 1 1 39153U 13018D 26072.38377859 .00005374 00000-0 47609-3 0 9999 2 39153 98.1536 228.1660 0013207 104.7224 255.5461 14.96631793696731 ZACUBE 1 39417U 13066B 26072.46490286 .00004651 00000-0 36825-3 0 9999 2 39417 97.8158 34.3075 0042994 207.4020 152.4936 15.00365828666375 TRITON 1 1 39427U 13066M 26072.58929567 .00002872 00000-0 35054-3 0 9998 2 39427 97.8289 344.5892 0090397 184.9095 175.1241 14.81221980659938 GOMX 1 1 39430U 13066Q 26072.43461115 .00001586 00000-0 24491-3 0 9990 2 39430 97.6572 278.9062 0130010 25.5646 335.1914 14.69112735655858 HUMSAT D 1 39433U 13066T 26068.77891092 .07089284 25853-5 14695-2 0 9996 2 39433 97.4699 82.1645 0007750 211.8767 148.2059 16.31051261671486 CUBEBUG 2 1 39440U 13066AA 26072.31676754 .00006076 00000-0 57111-3 0 9999 2 39440 97.8807 20.9950 0058193 346.9336 13.0372 14.93003467662687 FUNCUBE 1 1 39444U 13066AE 26072.35704843 .00007962 00000-0 51353-3 0 9995 2 39444 97.8186 41.9580 0037754 166.4701 193.7548 15.07980612665219 UWE-3 1 39446U 13066AG 26072.34108432 .00005597 00000-0 49009-3 0 9995 2 39446 97.8589 27.8866 0048047 279.5527 80.0266 14.96224943663248 UNISAT 6 1 40012U 14033C 26072.37277861 .00003792 00000-0 41466-3 0 9991 2 40012 97.7731 226.8783 0045822 25.8788 334.4706 14.87666338631917 DUCHIFAT 1 1 40021U 14033M 26072.05676030 .00060459 00000-0 10636-2 0 9994 2 40021 98.0637 118.8819 0005782 75.3847 284.8044 15.50256532640794 QB50P1 1 40025U 14033R 26072.47086216 .00011427 00000-0 58762-3 0 9999 2 40025 98.1008 77.0094 0008779 180.8547 179.2670 15.16608356638516 OBJECT G 1 40905U 15049G 26072.58514826 .00036277 00000-0 45834-3 0 9995 2 40905 97.4717 111.3603 0005617 189.8104 170.3044 15.59452740581511 LILACSAT 2 1 40908U 15049K 26072.58701956 .00018461 00000-0 35231-3 0 9995 2 40908 97.4807 105.9474 0005928 227.7194 132.3554 15.48180286580946 LQSAT 1 40958U 15057A 26072.59729828 .00000508 00000-0 79501-4 0 9990 2 40958 97.6669 70.7296 0015873 219.3593 140.6466 14.76643706561203 CHUBUSAT 2 1 41338U 16012B 26072.62311387 .00008441 00000-0 37843-3 0 9992 2 41338 30.9966 228.0407 0008661 180.5777 179.4854 15.19815646553864 CHUBUSAT 3 1 41339U 16012C 26072.60802348 .00005776 00000-0 27408-3 0 9997 2 41339 31.0035 235.5275 0009248 171.7751 188.3042 15.17678746553668 PRATHAM 1 41783U 16059A 26072.42045548 .00000947 00000-0 17581-3 0 9998 2 41783 97.8320 73.5022 0031736 161.1910 199.0475 14.67046358505472 ALSAT 1N 1 41789U 16059G 26072.56526943 .00001081 00000-0 19080-3 0 9998 2 41789 97.8040 80.1796 0026987 131.4994 228.8534 14.69126394505965